Regional Weather Roundup
Issued by NWS

Home | Current Version | Previous Version | Graphics & Text | Print | Product List | Glossary On
Versions: 1 2 3 4 5 6 7 8 9 10 11 12 13 14 15 16 17 18 19 20 21 22 23 24 25 26 27 28 29 30 31 32 33 34 35 36 37 38 39 40 41 42 43 44 45 46 47 48 49 50
000
ASUS43 KBIS 310620
RWRND

NORTH DAKOTA REGIONAL WEATHER ROUNDUP
NATIONAL WEATHER SERVICE BISMARCK ND
1200 AM CST SAT JAN 31 2015

NOTE: "FAIR" INDICATES FEW OR NO CLOUDS BELOW 12,000 FEET WITH NO
SIGNIFICANT WEATHER AND/OR OBSTRUCTIONS TO VISIBILITY.


NDZ001>003-009>011-017-310700-
NORTHWEST NORTH DAKOTA

CITY           SKY/WX    TMP DP  RH WIND       PRES   REMARKS
WILLISTON      CLOUDY    22  19  89 NE15      30.20F WCI   9
6HR MIN TEMP:  22; 6HR MAX TEMP:  35;

MINOT          CLOUDY    20  16  84 N13       30.22S WCI   7
MINOT AFB      CLOUDY    20  20  99 NE13      30.23R WCI   7
$$

NDZ018>021-031>035-040>046-310700-
SOUTHWEST NORTH DAKOTA

CITY           SKY/WX    TMP DP  RH WIND       PRES   REMARKS
BISMARCK       CLOUDY    26  24  92 NE14      30.19R WCI  14
6HR MIN TEMP:  24; 6HR MAX TEMP:  39;

DICKINSON      CLEAR     24  20  84 E7        30.12S WCI  16
GARRISON         N/A     24  22  91 NE9       30.18F WCI  14
6HR MIN TEMP:  23; 6HR MAX TEMP:  32;

HETTINGER ARPT CLEAR     19  16  88 CALM      30.13F
$$

NDZ004>008-012>016-024-026-027-054-310700-
NORTHEAST NORTH DAKOTA

CITY           SKY/WX    TMP DP  RH WIND       PRES   REMARKS
GRAND FORKS    CLOUDY    18  13  80 N17G25    30.23R WCI   3
GRND FRKS AFB  CLOUDY    18  13  79 N17G24    30.24R WCI   3
DEVILS LAKE    CLOUDY    19  12  73 NE16      30.21S WCI   5
$$

NDZ022-023-025-028>030-036>039-047>053-310700-
SOUTHEAST NORTH DAKOTA

CITY           SKY/WX    TMP DP  RH WIND       PRES   REMARKS
FARGO          CLOUDY    26  20  77 N21       30.18R WCI  12
6HR MIN TEMP:  22; 6HR MAX TEMP:  30;

JAMESTOWN      CLOUDY    24  21  88 N17       30.18R WCI  11
$$



USA.gov is the U.S. government's official web portal to all federal, state and local government web resources and services.